sat.trackr.live / text

‹ back to catalog

STARLINK-36715

NORAD 67716 · 2026-025Z

PAYLOAD ACTIVE UNKNOWN

§ Identity

Operator
Country
US
Launch date
2026-02-07
Launch site
AFWTR
Launch vehicle
Mass (kg)
RCS (m²)

Purposes: comms

External: N2YO · Heavens-Above · Gunter

§ Orbital elements

Epoch: 2026-05-24T19:35:15.826560Z

Period
93.91 min
Inclination
97.2858°
Eccentricity
0.0000209
Mean motion
15.33451221 rev/d
Perigee alt
465.4 km
Apogee alt
465.7 km
Semi-major
6,843.7 km
B*
7.1061e-4
RAAN
256.3541°
Arg perigee
158.5938°
Mean anomaly
201.5313°
Rev number
1,767

§ Raw data

STARLINK-367151 67716U 26025Z   26144.81615540  .00022940  00000+0  71061-3 0  99932 67716  97.2858 256.3541 0000209 158.5938 201.5313 15.33451221 17677

JSON: /api/v1/satellites/67716 · /tle

For live sub-satellite position, see the globe view (requires WebGL).

§ Visibility from observer

Set your observer location to see the next 7 days of passes ≥ 10°. The values pass through the URL so the page stays shareable.

No JS? Fill the form by hand. The geolocation button needs JavaScript.